Hyannis, MA

4:37 AM EDT on May 24, 2017 (GMT -0400)
Barnstable Municipal-Boardman-Polando Field

Weather History for KHYA - March, 2014

Change the Weather History Date:

Tuesday, March 25, 2014

  Actual Average Record
Temperature  
Mean Temperature 24 °F -  
Max Temperature 36 °F 46 °F 62 °F (1963)
Min Temperature 14 °F 31 °F 14 °F (2014)
Degree Days  
Heating Degree Days 40    
Moisture  
Dew Point 10 °F    
Average Humidity 51    
Maximum Humidity 80    
Minimum Humidity 32    
Precipitation  
Precipitation 0.00 in - - ()
Sea Level Pressure  
Sea Level Pressure 30.07 in    
Wind  
Wind Speed 4 mph (SSW)    
Max Wind Speed 14 mph    
Max Gust Speed 22 mph    
Visibility 10 miles    
Events      
Averages and records for this station are not official NWS values.
T = Trace of Precipitation, MM = Missing Value Source: NWS Daily Summary

Daily Weather History Graph

Daily Weather History Graph

Search for Another Location

Airport or City:

Trip Planner

Search our weather history database for the weather conditions in past years. The results will help you decide how hot, cold, wet, or windy it might be!

Date:

Astronomy

Mar. 25, 2014 Rise Set
Actual Time 6:35 AM EDT 6:58 PM EDT
Civil Twilight 6:08 AM EDT 7:26 PM EDT
Nautical Twilight 5:35 AM EDT 7:59 PM EDT
Astronomical Twilight 5:02 AM EDT 8:33 PM EDT
Moon 2:59 AM EDT (3/25) 1:21 PM EDT (3/25)
Length of Visible Light 13h 18m
Length of Day
12h 22m
Waning Crescent, 32% of the Moon is Illuminated
Mar 25
Waning Crescent
Mar 30
New
Apr 7
First Quarter
Apr 15
Full
Apr 22
Last Quarter

Hourly Weather History & Observations

Time (EDT) Temp. Windchill Dew Point Humidity Pressure Visibility Wind Dir Wind Speed Gust Speed Precip Events Conditions
12:56 AM 16.0 °F - 9.0 °F 74% 30.13 in 10.0 mi Calm Calm - N/A   Clear
1:56 AM 15.1 °F - 9.0 °F 77% 30.13 in 10.0 mi Calm Calm - N/A   Clear
2:56 AM 14.0 °F - 9.0 °F 80% 30.13 in 10.0 mi Calm Calm - N/A   Clear
3:56 AM 21.0 °F 14.6 °F 12.9 °F 71% 30.13 in 10.0 mi WNW 4.6 mph - N/A   Clear
4:56 AM 19.9 °F 14.9 °F 9.0 °F 62% 30.13 in 10.0 mi NW 3.5 mph - N/A   Clear
5:56 AM 15.1 °F - 7.0 °F 70% 30.14 in 10.0 mi Calm Calm - N/A   Clear
6:56 AM 15.1 °F - 7.0 °F 70% 30.15 in 10.0 mi Calm Calm - N/A   Clear
7:56 AM 25.0 °F 19.3 °F 14.0 °F 63% 30.15 in 10.0 mi WNW 4.6 mph - N/A   Clear
8:56 AM 28.0 °F - 8.1 °F 43% 30.13 in 10.0 mi Calm Calm - N/A   Clear
9:56 AM 30.9 °F 25.2 °F 5.0 °F 33% 30.13 in 10.0 mi WSW 5.8 mph - N/A   Clear
10:56 AM 32.0 °F 23.6 °F 6.1 °F 34% 30.14 in 10.0 mi SSW 10.4 mph 17.3 mph N/A   Clear
11:56 AM 32.0 °F 23.6 °F 5.0 °F 32% 30.11 in 10.0 mi SSW 10.4 mph - N/A   Clear
12:56 PM 34.0 °F 26.6 °F 10.0 °F 37% 30.12 in 10.0 mi South 9.2 mph - N/A   Clear
1:56 PM 35.1 °F 25.9 °F 12.0 °F 39% 30.10 in 10.0 mi South 13.8 mph 21.9 mph N/A   Clear
2:56 PM 35.1 °F 26.9 °F 12.0 °F 39% 30.07 in 10.0 mi SW 11.5 mph 19.6 mph N/A   Clear
3:56 PM 35.1 °F 26.9 °F 9.0 °F 34% 30.05 in 10.0 mi SSW 11.5 mph - N/A   Clear
4:56 PM 34.0 °F 26.6 °F 8.1 °F 34% 30.04 in 10.0 mi SSW 9.2 mph - N/A   Clear
5:56 PM 33.1 °F 26.9 °F 9.0 °F 37% 30.02 in 10.0 mi South 6.9 mph - N/A   Clear
6:56 PM 32.0 °F 28.7 °F 12.0 °F 44% 30.01 in 10.0 mi ESE 3.5 mph - N/A   Clear
7:56 PM 30.9 °F 27.5 °F 12.9 °F 47% 29.99 in 10.0 mi ESE 3.5 mph - N/A   Clear
8:56 PM 32.0 °F 27.5 °F 12.9 °F 45% 30.00 in 10.0 mi NE 4.6 mph - N/A   Overcast
9:56 PM 32.0 °F 25.6 °F 12.9 °F 45% 29.97 in 10.0 mi ENE 6.9 mph - N/A   Overcast
10:56 PM 32.0 °F 25.6 °F 15.1 °F 50% 29.92 in 10.0 mi NE 6.9 mph - N/A   Overcast
11:56 PM 33.1 °F 23.9 °F 19.0 °F 56% 29.84 in 10.0 mi NE 12.7 mph - N/A   Scattered Clouds